Location: Berry Creek
(51.8849°N, 111.7341°W)
Time: 00:55:12
(UTC-07:00)

Daily predictions for brighter satellites

Satellite Brightness Start Highest point End
(mag) Time Altitude Azimuth Time Altitude Azimuth Time Altitude Azimuth
SeaSat 1 4.4 04:19:39 10° NE 04:22:19 27° ENE 04:22:19 27° ENE
ADEOS II 4.1 04:19:44 10° NNE 04:21:31 21° NNE 04:21:31 21° NNE
USA 229 DEB 4.2 04:38:23 52° SSE 04:38:23 52° SSE 04:43:40 10° SE
USA 229 4.2 04:38:27 53° SSE 04:38:27 53° SSE 04:43:46 10° SE
NOSS 3-1 (A) 4.2 04:48:20 52° N 04:49:49 62° NE 04:57:51 10° ESE
ATLAS 2AS CENTAUR R/B 3.9 04:55:21 33° NNW 04:57:58 42° NNE 05:05:28 10° E
SL-16 R/B 2.8 05:04:44 48° SSE 05:04:44 48° SSE 05:08:43 10° SSE
Feng Yun 1-1 Rocket 4.4 05:06:50 10° NNE 05:12:16 69° ESE 05:14:03 43° S
ADEOS Rocket 4.2 05:07:54 10° N 05:13:17 37° NNW 05:13:17 37° NNW
Cosmos 2151 4.1 05:16:06 41° ENE 05:16:23 42° ENE 05:20:25 10° SE
Cosmos 2297 Rocket 2.4 05:15:15 50° S 05:16:34 66° ESE 05:22:12 10° NE
Cosmos 2016 Rocket 3.9 05:18:44 67° NW 05:18:44 67° NW 05:24:31 10° N
COSMO-SKYMED 1 3.9 05:14:18 10° SSE 05:16:41 32° SE 05:16:41 32° SE
Cosmos 1340 Rocket 4.3 05:20:03 33° NE 05:20:34 34° ENE 05:24:11 10° SE
Cosmos 1538 Rocket 4.1 05:21:58 63° N 05:22:46 75° ENE 05:28:08 10° SSE
Meteor 1-4 Rocket 4.2 05:22:58 30° SE 05:23:56 35° E 05:27:26 10° NNE
Cosmos 2233 Rocket 4.4 05:18:13 10° S 05:24:23 63° E 05:30:37 10° NNE
Cosmos 1500 Rocket 4.4 05:29:45 42° SSE 05:29:45 42° SSE 05:32:44 10° SSE
USA 234 3.2 05:21:59 10° ESE 05:28:35 86° NNE 05:30:21 53° WNW
Cosmos 1354 Rocket 4.3 05:29:58 53° N 05:29:58 53° N 05:34:09 10° NNE
Cosmos 2227 Rocket 2.0 05:28:45 76° WSW 05:29:10 83° WNW 05:34:53 10° NNE
BREEZE-M DEB (TANK) 4.1 05:31:03 32° ESE 05:31:03 32° ESE 05:32:23 10° E
SL-14 R/B 3.9 05:31:11 56° E 05:31:11 56° E 05:34:58 10° SSE
NOSS 3-1 (C) 3.9 05:28:35 46° NW 05:31:09 84° SW 05:39:21 10° SE
Meteor 1-28 Rocket 4.3 05:28:11 10° SSE 05:30:53 41° SE 05:30:53 41° SE
Ariane Rocket 4.5 05:30:11 10° NNE 05:34:55 37° E 05:39:38 10° SSE
Cosmos 1816 Rocket 4.4 05:31:04 10° NNW 05:37:22 67° W 05:43:34 10° S
Cosmos 1626 4.4 05:35:38 10° NNE 05:38:42 25° ENE 05:41:50 10° SE
Okean-O 4.1 05:36:58 10° N 05:38:56 25° N 05:38:56 25° N
Cosmos 2082 Rocket 4.5 05:40:36 10° NNW 05:42:09 11° N 05:43:42 10° NNE
Cosmos 2346 Rocket 4.3 05:36:55 10° NNW 05:43:07 80° W 05:49:11 10° S
ATLAS CENTAUR R/B 3.5 05:45:56 18° N 05:45:56 18° N 05:47:50 10° NNE
Cosmos 1818 3.6 05:44:49 58° NW 05:45:02 58° NW 05:50:28 10° NE
Cosmos 1943 4.1 05:42:00 20° NNW 05:45:45 47° NE 05:51:14 10° SE
Meteor 2-17 Rocket 4.4 05:45:30 44° SW 05:47:10 59° WNW 05:53:11 10° N
Tsikada Rocket 4.2 05:49:34 47° W 05:49:39 47° W 05:55:39 10° SSW
CZ-4 R/B 4.0 05:51:11 10° NE 05:54:22 22° E 05:57:35 10° SE
DMSP B5D1-3 4.4 05:52:00 10° S 05:57:07 70° WSW 06:00:01 26° NNW
Cosmos 2082 3.7 05:56:45 44° WSW 05:58:20 61° NW 06:04:04 10° NNE
SeaSat 1 2.7 05:57:08 10° NNE 06:01:52 47° NW 06:02:08 46° WNW
ADEOS II 3.4 05:59:54 10° N 06:02:29 23° NNW 06:02:29 23° NNW
Cosmos 1603 3.6 06:04:09 30° NW 06:07:00 75° WSW 06:12:38 10° SSE
Coronas F rocket 3.8 06:06:11 15° NE 06:07:07 19° ENE 06:08:56 10° ESE
Cosmos 968 Rocket 3.5 06:05:21 10° SSW 06:10:37 84° ESE 06:15:57 10° NNE
NOAA 6 4.0 06:06:41 10° N 06:11:50 63° WNW 06:16:56 10° SSW
Cosmos 2219 4.5 06:13:32 23° NW 06:13:32 23° NW 06:18:05 10° NNE
Cosmos 2112 Rocket 4.4 06:09:12 14° NNW 06:13:47 66° ENE 06:19:05 10° SE
Cosmos 1464 Rocket 4.3 06:08:38 10° S 06:14:54 69° E 06:21:09 10° NNE
Cosmos 773 Rocket 4.0 06:12:46 27° NW 06:15:34 65° WSW 06:20:49 10° S
SL-24 R/B 4.3 06:11:39 10° N 06:16:11 66° WNW 06:21:27 10° SSW
Cosmos 1666 Rocket 4.1 06:14:41 10° N 06:19:07 60° ENE 06:23:32 10° SSE
ISS -0.7 06:21:28 11° SSW 06:21:28 11° SSW 06:21:43 10° SSW
Cosmos 1725 Rocket 4.4 06:14:57 10° SW 06:20:46 40° WNW 06:26:42 10° N
Cosmos 2221 2.6 06:24:28 10° S 06:28:47 80° E 06:33:08 10° NNE
Genesis I 3.8 06:28:50 35° WSW 06:29:14 36° WSW 06:32:50 10° S
Cosmos 1184 Rocket 2.9 06:27:25 17° N 06:29:51 75° ENE 06:33:09 10° SSE
Cosmos 2058 3.1 06:28:17 27° NW 06:30:12 48° W 06:34:10 10° SSW
CSL-04 Rocket 3.6 06:26:55 10° NNE 06:32:17 87° ESE 06:37:35 10° SSW
Cosmos 1072 Rocket 4.4 06:28:32 10° S 06:34:43 83° W 06:40:53 10° N
NOSS 3-1 (A) 4.3 06:35:48 20° WNW 06:40:54 51° WSW 06:48:48 10° SSE
Cosmos 2227 4.4 06:35:28 10° SSW 06:41:03 75° ESE 06:46:42 10° NNE
Cosmos 1703 3.3 06:40:16 13° NNW 06:43:42 55° W 06:47:32 10° S
CSL-04 DEB 4.5 06:39:45 10° NNE 06:44:11 82° WNW 06:48:32 10° SSW
Cosmos 1777 Rocket 4.0 06:39:20 10° SSW 06:44:33 87° ESE 06:49:48 10° NNE
SL-16 R/B 3.6 06:46:41 17° WSW 06:46:41 17° WSW 06:49:55 10° SW
ATLAS 2AS CENTAUR R/B 3.1 06:42:48 14° NW 06:50:06 82° NE 06:57:53 10° SE
Cosmos 1470 Rocket 4.3 06:47:17 10° N 06:51:34 55° ENE 06:55:49 10° SSE
ERBS 4.4 06:51:26 14° SW 06:51:36 14° SW 06:53:28 10° SSW
Cosmos 2151 4.1 06:52:46 22° WNW 06:53:29 23° W 06:56:50 10° SW
IDEFIX/ARIANE 42P 2.8 06:49:04 10° NNE 06:54:21 76° ESE 06:59:39 10° S
Cosmos 1356 Rocket 3.6 06:50:48 10° NNW 06:54:38 47° W 06:58:36 10° S
Cosmos 1842 Rocket 4.4 06:51:02 10° SW 06:54:45 27° WNW 06:58:31 10° N
COSMO-SKYMED 1 4.3 06:52:28 10° SW 06:53:55 15° WSW 06:53:55 15° WSW
Helios 1B rocket 2.3 06:52:31 10° SSE 06:56:38 83° WSW 07:00:47 10° NNW
Cosmos 1340 Rocket 3.8 06:55:44 21° WNW 06:56:56 25° W 07:00:10 10° SSW
Cosmos 1805 Rocket 3.9 06:54:05 10° NNW 06:58:17 43° W 07:02:27 10° SSW
Meteor 1-4 Rocket 3.7 06:57:30 17° WSW 06:59:13 23° WNW 07:02:21 10° N
Cosmos 2228 Rocket 4.0 06:55:35 10° S 06:59:53 53° E 07:04:12 10° NNE
Cosmos 2297 Rocket 3.0 06:57:08 15° W 07:01:05 31° NW 07:06:07 10° NNE
Cosmos 1271 Rocket 3.3 07:01:19 10° SW 07:04:48 34° WNW 07:08:18 10° N
Meteor 1-29 2.9 07:05:06 10° S 07:08:36 77° WSW 07:12:09 10° NNW
Alouette 2 Rocket 4.0 07:07:36 10° N 07:11:15 52° ENE 07:14:49 10° SSE
USA 234 3.9 07:05:52 10° SSE 07:12:01 41° SW 07:17:42 12° WNW
Cosmos 1484 Rocket 3.7 07:08:26 10° NNE 07:12:26 56° E 07:16:22 10° S
SJ-12 3.9 07:09:37 10° N 07:13:41 63° WNW 07:17:42 10° SSW
ATLAS CENTAUR R/B 3.3 07:10:30 15° WNW 07:13:46 58° NNE 07:24:31 10° E
Ariane Rocket 3.4 07:09:12 10° N 07:13:55 39° WNW 07:18:38 10° SW
Cosmos 2227 Rocket 3.3 07:10:37 14° W 07:14:05 23° NW 07:18:36 10° NNE
Cosmos 1626 2.9 07:10:47 10° NNW 07:14:09 32° W 07:17:29 10° SSW
Cosmos 192 4.4 07:11:08 10° NNW 07:16:08 88° WSW 07:21:06 10° SSE
Cosmos 1680 Rocket 4.2 07:16:14 10° NW 07:21:04 36° WSW 07:25:53 10° SSW
Sich 1 3.6 07:19:12 10° NNW 07:23:13 36° W 07:27:12 10° SSW
IRS-1A Rocket 4.4 07:18:28 10° N 07:24:18 60° WNW 07:30:02 10° SW
ATLAS CENTAUR R/B 3.5 07:22:46 10° NNW 07:25:11 15° N 07:27:30 10° NE
Cosmos 1633 Rocket 3.5 07:21:35 10° NNW 07:25:39 38° W 07:29:40 10° SSW
SMAP 3.0 07:21:13 10° N 07:25:52 67° WNW 07:30:29 10° SSW
Cosmos 2082 Rocket 4.2 07:24:39 10° NNW 07:28:44 19° NNE 07:32:48 10° ENE
Cosmos 2034 Rocket 4.1 07:23:31 10° SSW 07:29:33 52° WNW 07:35:41 10° N
CZ-4 R/B 1.7 07:25:47 10° N 07:29:37 44° WNW 07:33:31 10° SW
Cosmos 1943 3.8 07:24:29 10° NW 07:29:46 39° WSW 07:35:00 10° S
Cosmos 389 Rocket 2.5 07:26:58 10° SSW 07:30:37 64° WNW 07:34:17 10° N
Cosmos 1898 Rocket 4.5 07:25:50 10° S 07:30:56 54° ESE 07:36:08 10° NNE
CZ-2C R/B 2.4 07:26:26 10° N 07:30:57 53° WNW 07:35:24 10° SW
Nadezhda 4 Rocket 4.3 07:24:56 10° NNW 07:31:00 48° W 07:36:59 10° SSW
Iridium 4 Rocket 3.0 07:28:38 10° N 07:32:52 87° W 07:37:18 10° S
Cosmos 1328 Rocket 3.5 07:30:47 10° SSW 07:35:07 76° W 07:39:32 10° N
Cosmos 2026 Rocket 4.0 07:29:18 10° N 07:35:26 89° E 07:41:30 10° S
Coronas F rocket 2.9 07:36:26 10° NW 07:37:55 15° W 07:39:26 10° SW
Cosmos 2344 4.3 07:30:41 10° SSW 07:38:17 66° SE 07:47:18 10° NE
SeaSat 1 4.1 07:35:41 10° N 07:38:27 15° NNW 07:41:12 10° WNW
Cosmos 1515 Rocket 3.6 07:37:08 10° S 07:41:33 86° W 07:46:02 10° N
YAOGAN 1 2.8 07:39:16 10° N 07:43:29 49° WNW 07:47:39 10° SW
COSMOS 2406 3.5 07:38:20 10° NNW 07:44:08 75° ENE 07:49:55 10° SE
CORIOLIS 4.2 07:38:59 10° N 07:44:21 64° WNW 07:49:42 10° SSW
Cosmos 1092 Rocket 4.3 07:41:49 10° NNW 07:47:51 49° W 07:53:47 10° SSW
COSMOS 2441 4.4 07:46:27 10° N 07:51:11 60° WNW 07:55:53 10° SSW
